[[{"header":{"parameterUnit":"m.s-1","parameterCategory":1,"la1":30.2991,"la2":30.254,"lo1":-89.0895,"lo2":-89.0444,"dy":0.0017,"dx":0.0017,"nx":28,"ny":28,"refTime":"2024-07-28T21:00:00:Z","depth":0,"parameterNumber":2,"parameterNumberName":"U-component_of_WINDS"},"data":[0,0,0,0,0,0,0,0,0,0,0,0,0,0,0,0,0,0,0,0,0,0,0,0,0,0,0,0,0,0,0,0,0,0,0,0,0,0,0,0,0,0,0,0,0,0,0,0,0,0,0,0,0,0,0,0,0,0,3.1329,3.1329,0,3.1356,3.1357,3.1357,3.1288,3.1286,3.1283,3.1281,3.1315,3.1318,3.1321,0,0,0,0,0,0,0,0,0,0,0,0,0,3.1224,3.1226,3.1329,3.1329,3.133,3.1356,3.1357,3.1357,3.1288,3.1285,3.1283,3.128,3.1314,3.1317,3.1321,0,0,0,0,0,0,0,0,0,0,0,0,0,3.1262,3.1227,3.1329,3.1298,3.1296,3.1356,3.1357,3.1357,3.1289,3.1285,3.1282,3.1279,3.1313,3.1317,3.1321,3.1414,0,0,3.1335,3.1337,0,0,0,0,0,0,0,0,3.126,3.1266,3.1303,3.1301,3.1298,3.1315,3.1332,3.1376,3.1289,3.1292,3.1281,3.1277,3.1318,3.1322,3.1334,3.1416,3.1417,3.1335,3.1338,3.134,3.1341,0,0,0,0,0,0,0,3.1258,3.1265,3.134,3.1303,3.13,3.1285,3.1287,3.134,3.1323,3.1291,3.1286,3.129,3.1316,3.133,3.1334,3.1418,3.1335,3.1339,3.1342,3.1343,3.158,3.1583,0,0,0,0,0,0,3.1258,3.1263,3.1339,3.1341,3.127,3.129,3.1292,3.1313,3.1322,3.132,3.1293,3.1287,3.1324,3.1329,3.1335,3.1447,3.134,3.1344,3.1346,3.1576,3.1581,3.1584,0,0,0,0,0,0,3.1256,3.1266,3.1338,3.1301,3.1309,3.1295,3.1319,3.1315,3.1329,3.1323,3.1321,3.131,3.1322,3.1329,3.1395,3.1447,3.1346,3.135,3.1572,3.1577,3.1582,3.1669,0,0,0,0,0,0,3.1253,3.1265,3.1299,3.1302,3.1311,3.1396,3.1322,3.1318,3.1336,3.1329,3.1339,3.1337,3.132,3.1389,3.14,3.1451,3.1353,3.1567,3.1574,3.1581,3.1661,3.1677,3.169,0,0,0,0,0,3.125,3.1323,3.1301,3.131,3.1352,3.1399,3.1404,3.1381,3.1341,3.1375,3.1372,3.1337,3.1439,3.1396,3.1408,3.1461,3.1564,3.1572,3.158,3.1655,3.1674,3.1689,0,0,0,0,0,0,3.1327,3.1322,3.1298,3.1373,3.1387,3.1387,3.143,3.1401,3.1428,3.1419,3.1391,3.1394,3.1467,3.147,3.1423,3.1553,3.1495,3.1506,3.1548,3.1566,3.1579,3.1578,3.1357,0,0,0,0,0,3.1353,3.1389,3.1383,3.1451,3.1459,3.1443,3.1463,3.1444,3.1457,3.1463,3.1464,3.1481,3.1517,3.1541,3.1574,3.1661,3.1664,3.1704,3.1718,3.173,3.174,3.1789,3.1808,3.1611,3.1611,3.1611,0,0,3.1407,3.1408,3.1433,3.1466,3.1475,3.1515,3.1449,3.1494,3.1525,3.1471,3.1533,3.1535,3.1552,3.163,3.1664,3.1635,3.1795,3.174,3.1749,3.1753,3.18,3.1818,3.1835,3.1617,3.1616,3.1615,0,0,3.1526,3.153,3.1587,3.1597,3.1609,3.1599,3.1613,3.1618,3.1617,3.1679,3.164,3.1677,3.1738,3.1752,3.1768,3.1894,3.1864,3.1906,3.198,3.2029,3.2044,3.2058,3.2105,3.2123,3.1916,3.1916,3.1916,0,3.1592,3.1649,3.1621,3.1669,3.1686,3.1638,3.1698,3.1709,3.1733,3.1747,3.1713,3.1791,3.1798,3.188,3.1911,3.1924,3.1942,3.1905,3.2044,3.2057,3.207,3.2115,3.2133,3.1921,3.192,3.192,3.1919,0,3.1731,3.1772,3.1817,3.184,3.1862,3.1916,3.1898,3.1924,3.1904,3.1898,3.1963,3.1971,3.2005,3.2023,3.2003,3.2103,3.2085,3.2048,3.1989,3.2094,3.2136,3.2153,3.1928,3.1927,3.1925,3.1924,0,0,3.19,3.1907,3.1924,3.1935,3.1946,3.1979,3.2032,3.2064,3.2088,3.2106,3.2152,3.2206,3.2173,3.219,3.2172,3.2214,3.2317,3.2173,3.2173,3.2202,3.2431,3.246,3.248,3.2297,3.23,3.2302,3.243,0,3.2019,3.2108,3.2085,3.2175,3.2214,3.2169,3.2216,3.2229,3.2225,3.226,3.2256,3.2296,3.2247,3.2258,3.2298,3.2296,3.2363,3.2287,3.2342,3.2344,3.2341,3.2501,3.2532,3.2652,3.2446,3.2449,3.2451,0,3.217,3.2194,3.2287,3.2294,3.2309,3.2351,3.238,3.2413,3.2428,3.2423,3.2443,3.2417,3.2472,3.2412,3.2489,3.2438,3.2459,3.2462,3.2466,3.2472,3.2405,3.2514,3.2689,3.2708,3.2476,3.2474,3.2472,0,3.2287,3.2342,3.2406,3.2416,3.2425,3.2456,3.2462,3.2473,3.2495,3.2521,3.2535,3.2567,3.2586,3.2613,3.2597,3.2554,3.2679,3.2616,3.2678,3.2679,3.2707,3.2706,3.2891,3.2718,3.2718,3.2717,3.2717,0,3.2424,3.2484,3.2458,3.2498,3.2564,3.2538,3.2605,3.2606,3.2617,3.2658,3.2621,3.266,3.2637,3.2675,3.2663,3.2731,3.2739,3.2738,3.2735,3.2742,3.2743,3.2757,3.2749,3.2722,3.2721,3.272,3.2719,0,3.2567,3.2551,3.2618,3.2621,3.2623,3.2673,3.2676,3.2714,3.2707,3.276,3.277,3.2761,3.2804,3.2791,3.2838,3.2831,3.2917,3.2902,3.2911,3.2908,3.2972,3.2967,3.3174,3.3201,3.3008,3.301,3.3012,0,3.2656,3.2701,3.2708,3.2732,3.274,3.2779,3.28,3.2777,3.2802,3.2823,3.286,3.2899,3.293,3.3002,3.3001,3.3037,3.3024,3.3094,3.303,3.3037,3.3028,3.3026,3.3032,3.3108,3.311,3.3112,3.3113,0,3.2817,3.2808,3.2839,3.2869,3.2896,3.2919,3.2939,3.2961,3.2939,3.2969,3.3012,3.3036,3.3084,3.3125,3.3158,3.3166,3.3138,3.3133,3.315,3.3159,3.3164,3.3165,3.2949,3.3129,3.3128,3.3126,3.3126,3.3125,3.2937,3.2976,3.2988,3.3025,3.3037,3.3057,3.3093,3.3091,3.3126,3.3162,3.3147,3.3197,3.3214,3.3255,3.3268,3.3309,3.3282,3.3306,3.3312,3.3319,3.3328,3.3156,3.3314,3.3314,3.3314,3.3313,3.3313,0,3.3098,3.3104,3.3138,3.3167,3.3197,3.3165,3.3186,3.3214,3.3258,3.3275,3.3306,3.3357,3.3397,3.3399,3.3437,3.347,3.3458,3.3481,3.3479,3.3482,3.3348,3.3331,3.349,3.349,3.349,3.349,3.349,3.349,3.3186,3.325,3.3243,3.3314,3.3319,3.3367,3.3382,3.3401,3.3415,3.3473,3.3505,3.3506,3.3518,3.3556,3.3593,3.3592,3.3609,3.3638,3.3633,3.3509,3.3491,3.3474,3.3458,3.3641,3.3641,3.3764,3.3765,3.3766]},{"header":{"parameterUnit":"m.s-1","parameterCategory":1,"la1":30.2991,"la2":30.254,"lo1":-89.0895,"lo2":-89.0444,"dy":0.0017,"dx":0.0017,"nx":28,"ny":28,"refTime":"2024-07-28T21:00:00:Z","depth":0,"parameterNumber":3,"parameterNumberName":"V-component_of_WINDS"},"data":[0,0,0,0,0,0,0,0,0,0,0,0,0,0,0,0,0,0,0,0,0,0,0,0,0,0,0,0,0,0,0,0,0,0,0,0,0,0,0,0,0,0,0,0,0,0,0,0,0,0,0,0,0,0,0,0,0,0,1.3953,1.3954,0,1.4052,1.4053,1.4054,1.4083,1.4083,1.4082,1.4082,1.4179,1.4182,1.4186,0,0,0,0,0,0,0,0,0,0,0,0,0,1.3782,1.3785,1.3953,1.3954,1.3955,1.4052,1.4053,1.4054,1.4083,1.4083,1.4082,1.4082,1.4178,1.4182,1.4186,0,0,0,0,0,0,0,0,0,0,0,0,0,1.3866,1.3786,1.3952,1.3981,1.3985,1.4051,1.4053,1.4055,1.4083,1.4083,1.4082,1.4081,1.4177,1.4182,1.4186,1.423,0,0,1.42,1.4202,0,0,0,0,0,0,0,0,1.3861,1.3872,1.3976,1.3979,1.3984,1.4054,1.4029,1.4113,1.4084,1.4046,1.4082,1.4081,1.4138,1.4146,1.4166,1.4235,1.4239,1.4201,1.4204,1.4206,1.4207,0,0,0,0,0,0,0,1.3855,1.3868,1.3992,1.3977,1.3982,1.3987,1.3998,1.4045,1.4095,1.4049,1.4052,1.4063,1.414,1.4162,1.4169,1.424,1.4201,1.4205,1.4208,1.4209,1.4345,1.4345,0,0,0,0,0,0,1.3845,1.3863,1.3989,1.3995,1.3919,1.3991,1.4003,1.4032,1.4095,1.4103,1.4064,1.4064,1.4154,1.4163,1.4172,1.4225,1.4206,1.421,1.4213,1.4344,1.4345,1.4346,0,0,0,0,0,0,1.3841,1.3856,1.3985,1.3929,1.3946,1.3995,1.4027,1.4035,1.4056,1.4106,1.4114,1.4077,1.4154,1.4166,1.4215,1.4229,1.4212,1.4216,1.4343,1.4344,1.4345,1.4333,0,0,0,0,0,0,1.3836,1.3855,1.3874,1.393,1.3949,1.4028,1.4028,1.4037,1.4065,1.4066,1.412,1.4128,1.4154,1.4208,1.4219,1.4235,1.422,1.4342,1.4343,1.4345,1.4332,1.4333,1.4334,0,0,0,0,0,1.383,1.3866,1.3875,1.389,1.3974,1.4028,1.4039,1.4069,1.4066,1.4084,1.4115,1.4127,1.4225,1.4212,1.4226,1.4243,1.4341,1.4343,1.4345,1.4332,1.4333,1.4334,0,0,0,0,0,0,1.381,1.3874,1.3884,1.394,1.3978,1.4033,1.4058,1.4071,1.411,1.411,1.4144,1.4156,1.4202,1.4227,1.4212,1.4286,1.4283,1.4288,1.4269,1.427,1.4272,1.4265,1.4224,0,0,0,0,0,1.3812,1.3853,1.3906,1.395,1.3969,1.4009,1.4034,1.4054,1.4095,1.4111,1.4146,1.4183,1.4222,1.4248,1.4287,1.4335,1.4346,1.4353,1.4354,1.4355,1.4359,1.4383,1.4386,1.4352,1.4352,1.4352,0,0,1.3817,1.3857,1.3881,1.3947,1.3979,1.4018,1.4023,1.4065,1.4093,1.4117,1.4165,1.4191,1.4235,1.4283,1.4306,1.4306,1.437,1.4357,1.4358,1.4361,1.4385,1.4388,1.4391,1.4353,1.4353,1.4353,0,0,1.3846,1.3881,1.392,1.3952,1.4,1.4027,1.4036,1.4088,1.4106,1.4155,1.4173,1.4205,1.4273,1.4303,1.4327,1.4361,1.4373,1.4373,1.4379,1.4402,1.4405,1.4408,1.4418,1.4422,1.4376,1.4376,1.4376,0,1.3846,1.3907,1.3938,1.3979,1.4005,1.4028,1.4066,1.4095,1.4153,1.417,1.4169,1.4251,1.4283,1.4337,1.4345,1.4364,1.4373,1.4368,1.4402,1.4405,1.4408,1.4418,1.4422,1.4376,1.4376,1.4376,1.4376,0,1.3903,1.3944,1.397,1.4025,1.4055,1.4094,1.4128,1.4154,1.4169,1.4195,1.4242,1.428,1.4325,1.4339,1.4355,1.4394,1.4392,1.4396,1.4394,1.441,1.442,1.4425,1.4375,1.4375,1.4375,1.4375,0,0,1.3925,1.3995,1.4004,1.4028,1.4081,1.4112,1.415,1.4195,1.4215,1.4253,1.4284,1.4338,1.4341,1.4368,1.4387,1.4407,1.4429,1.4409,1.441,1.441,1.4471,1.4468,1.4472,1.4436,1.4437,1.4438,1.4467,0,1.3959,1.403,1.4057,1.4114,1.4151,1.417,1.4203,1.4237,1.4261,1.4293,1.4318,1.4356,1.4358,1.4374,1.4395,1.4422,1.4442,1.442,1.4463,1.4465,1.4452,1.4478,1.4475,1.4501,1.4471,1.4472,1.4473,0,1.401,1.4048,1.4109,1.4154,1.417,1.42,1.4241,1.4273,1.431,1.4326,1.4354,1.437,1.4407,1.4401,1.4451,1.4436,1.4454,1.447,1.4471,1.4477,1.447,1.4483,1.451,1.4513,1.4479,1.4479,1.4478,0,1.4018,1.4084,1.4128,1.4148,1.4203,1.4222,1.4245,1.4283,1.4306,1.4342,1.4357,1.4395,1.4416,1.4445,1.447,1.4464,1.4516,1.4513,1.4528,1.4527,1.4539,1.4538,1.4569,1.4551,1.4551,1.4551,1.4551,0,1.4054,1.4089,1.4132,1.4159,1.4198,1.4227,1.4264,1.4288,1.4321,1.435,1.4369,1.4396,1.4428,1.4458,1.4478,1.4515,1.4524,1.4536,1.4541,1.4534,1.4533,1.4547,1.4546,1.4552,1.4552,1.4552,1.4552,0,1.407,1.41,1.4149,1.4196,1.4208,1.4234,1.4273,1.4298,1.4321,1.4358,1.4369,1.4404,1.444,1.4468,1.4515,1.4528,1.4566,1.4572,1.4554,1.4557,1.457,1.4568,1.4611,1.4617,1.4595,1.4596,1.4596,0,1.4091,1.4118,1.4167,1.4189,1.4212,1.4247,1.4271,1.4299,1.4323,1.4366,1.4385,1.4423,1.4455,1.4511,1.4539,1.4574,1.458,1.4593,1.4586,1.4577,1.4579,1.4577,1.4579,1.4594,1.4594,1.4594,1.4594,0,1.4123,1.4136,1.4171,1.4211,1.4239,1.4271,1.4303,1.4319,1.4352,1.4378,1.4415,1.444,1.4487,1.4523,1.456,1.4581,1.4592,1.4596,1.4601,1.4595,1.4583,1.4588,1.4556,1.4595,1.4595,1.4595,1.4595,1.4595,1.4142,1.4166,1.4204,1.4241,1.4268,1.4297,1.4322,1.4347,1.438,1.4421,1.4434,1.4472,1.4505,1.4557,1.4578,1.4606,1.4606,1.4614,1.4616,1.4617,1.4616,1.4578,1.4613,1.4613,1.4613,1.4613,1.4613,0,1.4174,1.4199,1.4233,1.4277,1.4305,1.4314,1.4348,1.4371,1.4405,1.4435,1.4465,1.4506,1.454,1.457,1.4605,1.4622,1.4627,1.463,1.4629,1.4633,1.4614,1.4606,1.4624,1.4624,1.4624,1.4624,1.4624,1.4624,1.4195,1.4236,1.4252,1.4305,1.4329,1.4367,1.4386,1.4411,1.4436,1.4481,1.451,1.4529,1.4558,1.4595,1.4625,1.4633,1.4644,1.4645,1.4654,1.4636,1.4635,1.4633,1.4625,1.4647,1.4647,1.467,1.467,1.467]}]]